Date,TemperatureHighF,TemperatureAvgF,TemperatureLowF,DewpointHighF,DewpointAvgF,DewpointLowF,HumidityHigh,HumidityAvg,HumidityLow,PressureMaxIn,PressureMinIn,WindSpeedMaxMPH,WindSpeedAvgMPH,GustSpeedMaxMPH,PrecipitationSumIn
2013-2-1,53.8,46.1,40.5,50.1,43.2,37.6,94,90,78,30.34,30.26,3,0,3,0.01
2013-2-2,43.6,40.5,37.4,40.7,38.1,35.3,93,91,88,30.31,30.20,5,0,5,0.00
2013-2-3,50.0,44.0,38.5,46.3,41.2,36.1,93,90,84,30.25,30.15,5,1,5,0.11
2013-2-4,52.9,46.8,43.7,46.3,43.1,41.2,91,87,75,30.15,29.83,4,0,4,0.00
2013-2-5,52.2,46.5,43.9,46.4,42.7,40.6,91,86,78,29.88,29.79,12,1,12,0.25
2013-2-6,50.4,45.1,43.6,42.8,40.5,39.4,88,84,73,29.99,29.73,10,2,10,0.04
2013-2-7,52.4,44.5,32.8,42.2,37.7,28.4,86,77,62,30.12,29.73,10,2,10,0.12
2013-2-8,47.0,38.2,30.4,41.1,33.5,27.3,89,83,74,30.23,30.12,4,0,4,0.01
2013-2-9,45.2,41.9,38.9,41.3,38.5,35.5,90,88,85,30.27,30.19,3,0,3,0.05
2013-2-10,47.7,40.6,34.9,42.1,37.0,32.5,91,87,78,30.32,30.25,4,0,4,0.01
2013-2-11,48.6,43.2,38.3,42.9,38.9,35.1,90,85,76,30.29,30.25,4,0,4,0.01
2013-2-12,49.1,46.1,42.5,46.2,42.9,38.7,91,88,85,30.33,30.22,10,1,10,0.07
2013-2-13,48.6,45.4,43.9,44.4,42.6,41.2,92,90,85,30.43,30.24,6,0,6,0.13
2013-2-14,44.3,44.3,44.1,41.9,41.7,41.4,91,90,90,30.43,30.41,4,1,4,0.01
2013-2-18,40.3,39.7,39.2,35.7,35.3,34.8,85,84,83,29.72,29.70,2,0,2,0.00
2013-2-19,51.7,42.0,33.7,42.7,34.8,28.8,89,76,56,29.94,29.66,10,0,10,0.00
2013-2-20,46.6,39.7,33.5,40.0,35.2,28.8,88,84,76,29.98,29.92,8,0,8,0.05
2013-2-21,43.9,42.2,40.0,39.5,38.3,36.4,89,86,82,30.00,29.94,13,2,13,0.07
2013-2-22,46.4,42.8,40.0,42.0,38.4,34.1,88,84,80,29.98,29.63,16,4,16,0.14
2013-2-23,50.9,43.2,39.2,41.3,36.9,34.6,85,79,64,30.30,29.83,8,2,8,0.00
2013-2-24,48.1,44.4,40.9,39.8,37.3,35.5,82,76,71,30.30,29.89,13,2,13,0.00
2013-2-25,51.8,43.7,36.4,41.3,36.9,30.8,85,77,61,30.23,29.82,14,2,14,0.10
2013-2-26,49.5,42.0,32.4,39.4,33.7,27.8,87,73,60,30.28,30.13,9,1,9,0.01
2013-2-27,53.3,45.6,39.2,45.3,39.8,34.8,88,80,68,30.24,30.13,8,1,8,0.39
2013-2-28,52.2,46.9,42.8,49.3,43.8,39.5,91,89,88,30.26,30.12,10,1,10,0.26